This is the latest recevied weather packets stored in our database for station/object K4KMJ. If no packets are shown the sender has not sent any weather packets the latest 10 day(s).
| Time | Temp. | Humidity | Pressure | Rain* | Wind** | Luminosity | Snow |
|---|---|---|---|---|---|---|---|
| 1787836119 | 25° C | 99% | 1019 hPa | 0 mm | - | 282 W/m² | - |
| 1787835815 | 25° C | 99% | 1019.1 hPa | 0 mm | - | 255 W/m² | - |
| 1787835514 | 25° C | 99% | 1019 hPa | 0 mm | - | 238 W/m² | - |
| 1787835216 | 25° C | 99% | 1019 hPa | 0 mm | - | 255 W/m² | - |
| 1787834904 | 24.44° C | 99% | 1018.9 hPa | 0 mm | - | 232 W/m² | - |
| 1787834604 | 24.44° C | 99% | 1018.9 hPa | 0 mm | - | 191 W/m² | - |
| 1787834299 | 23.89° C | 99% | 1018.8 hPa | 0 mm | - | 156 W/m² | - |
| 1787833995 | 24.44° C | 99% | 1018.7 hPa | 0 mm | - | 139 W/m² | - |
| 1787833690 | 23.89° C | 99% | 1018.6 hPa | 0 mm | - | 129 W/m² | - |
| 1787833385 | 23.89° C | 99% | 1018.8 hPa | 0 mm | - | 135 W/m² | - |
| 1787833081 | 23.33° C | 99% | 1018.8 hPa | 0 mm | - | 115 W/m² | - |
| 1787832776 | 23.33° C | 99% | 1019 hPa | 0 mm | - | 79 W/m² | - |
| 1787832476 | 22.78° C | 99% | 1019 hPa | 0 mm | - | 63 W/m² | - |
| 1787832170 | 22.78° C | 99% | 1019 hPa | 0 mm | - | 53 W/m² | - |
| 1787831868 | 22.78° C | 99% | 1019 hPa | 0 mm | - | 49 W/m² | - |
| 1787831563 | 22.78° C | 99% | 1018.7 hPa | 0 mm | - | 48 W/m² | - |
| 1787831262 | 22.22° C | 99% | 1019 hPa | 0 mm | - | 44 W/m² | - |
| 1787830958 | 22.22° C | 99% | 1018.7 hPa | 0 mm | - | 33 W/m² | - |
| 1787830652 | 22.22° C | 99% | 1018.8 hPa | 0 mm | - | 29 W/m² | - |
| 1787830351 | 22.22° C | 99% | 1018.7 hPa | 0 mm | - | 26 W/m² | - |
| 1787830046 | 22.22° C | 99% | 1018.5 hPa | 0 mm | - | 18 W/m² | - |
| 1787829745 | 22.22° C | 99% | 1018.4 hPa | 0 mm | - | 14 W/m² | - |
| 1787829440 | 22.22° C | 99% | 1018.5 hPa | 0 mm | - | 9 W/m² | - |
| 1787829137 | 22.22° C | 99% | 1018.3 hPa | 0 mm | - | 6 W/m² | - |
| 1787828831 | 22.22° C | 99% | 1018.3 hPa | 0 mm | - | 4 W/m² | - |
* Rain latest hour (hover to see other rain measurements)
** Current wind speed in m/s (hover to see current wind gust speed)